Location: Unspecified
(0.0000°N, 0.0000°E)
Time: 06:00:28
(UTC+01:00)

BREEZE-M DEB (TANK) - Visible Passes

Search period start: 29 November 2014 00:00
Search period end: 09 December 2014 00:00
Orbit: 317 x 16422 km, 49.4° (Epoch: 27 November)

Date Brightness Start Highest point End Pass type
(mag) Time Alt. Az. Time Alt. Az. Time Alt. Az.
29 Nov 6.1 21:01:50 10° NNW 21:52:28 55° N 21:52:28 55° N visible
30 Nov 6.2 22:04:00 10° NW 22:38:33 52° NW 22:38:33 52° NW visible
01 Dec 6.7 23:03:58 10° NW 23:24:39 33° WNW 23:24:39 33° WNW visible
03 Dec 7.2 00:03:52 10° WNW 00:10:44 16° WNW 00:10:44 16° WNW visible
03 Dec 6.5 17:54:55 10° NW 19:45:54 35° NNE 19:59:36 18° E visible
04 Dec 5.9 19:23:10 10° NNW 20:39:20 47° NE 20:45:40 35° E visible
05 Dec 5.3 20:32:11 10° NNW 21:29:47 68° NE 21:31:44 63° E visible
06 Dec 5.2 21:35:24 10° NW 22:17:48 77° WSW 22:17:48 77° WSW visible
07 Dec 5.9 22:36:40 10° NW 23:03:52 40° WSW 23:03:52 40° WSW visible
08 Dec 6.7 23:38:12 10° WNW 23:49:23 17° WSW 23:49:54 17° WSW visible
